OBJECT D, 51827

Orbit data source: Space-Track

You're viewing an Uncataloged Satellite

Recently launched and/or uncataloged satellites may have evolving metadata. Metadata may include but not limited to: Owner, Maufacturer, Bus, Motor, and Mission.

OBJECT D, 51827 is a Chinese satellite in SSO that was launched on Sun, 27 Feb 2022 UTC via a CHANG ZHENG 8 launch vehicle from the Wenchang Satellite Launch Center (WSC). Unknown objects in Earth's orbit typically refer to objects detected orbiting the Earth but have not yet been identified or cataloged. These objects could be anything from previously untracked satellites, spent rocket stages, debris from satellite collisions, or even natural meteoroids temporarily captured by Earth's gravity.

Loading next visibility...
Identifier
51827, 2022-019D
Orbit
SSO
Country
Flag of CNCN / PRC
Related business
None
Manufacturer
Unknown
Mission
Non-operational Civil Imaging
Bus & Motor
Unknown
Mass
Unknown
Launch date (UTC)
2022-02-27 (4 years ago)
Launch vehicle
CHANG ZHENG 8
Launch site
Wenchang Satellite Launch Center (WSC)
Object type
Unknown
Shape & HBR
Box + 2 Pan, 1.0 m
Radar Cross Section
1.775 m², Medium (>0.1 m² and < 1m²)

Expand to show TLE details & history
Last TLE update: 4 hours ago

TLE from 4 hours ago
0 OBJECT D
1 51827U 22019D   26095.54357284  .00069085  00000-0  78105-3 0  9999
2 51827  97.3669 184.6098 0004527  44.2075 315.9544 15.62227104228330
Epoch: 2026-04-05T13:02Z
TLE epoch observation values (Epoch: 2026-04-05T13:02:44.693Z)
Latitude
-0.00002°
Longitude
155.0761°
Altitude
382.175 km
Speed
7.682 km/s
True Right ascension
12h 18m 26s
True Declination
0° 00' 00"
Sunlit
Object was in full shadow at epoch
Visualization orbit readout
Latitude
Unknown
Longitude
Unknown
Altitude
Unknown
Speed
Unknown
Apparent Right ascension
Unknown
Apparent Declination
Unknown
Sunlit
N/A
Visualization observer readout
Local Sidereal Time
23:16:51
Azimuth
Unknown
Elevation
Unknown
Doppler factor
Unknown
Orbital elements
Apogee altitude
381.192 km
Perigee altitude
375.075 km
Semi-major axis
6,756.27 km
Eccentricity
0.00045
Inclination
97.3669°
RAAN
184.6098°
Arg. of periapsis
44.2075°
True anomaly
315.91832°
Mean anomaly
315.9544°
Eccentric anomaly
315.93636°
Mean motion
3.90825 °/min
Orbital period
92.11 mins
BSTAR
0.00078105
Loading maneuver chart data...
Computing Atmospheric mass density...
Loading historical data...
Loading historical data...
Loading historical data...
Loading historical data...
Loading historical data...
Loading historical data...
Loading historical data...

Documentation

Showing up to 5 results
|